Hourly Data Report for January 11, 2018

All times are specified in Local Standard Time (LST). Add 1 hour to adjust for Daylight Saving Time where and when it is observed.

BARRIE-ORO
ONTARIO

44°29'00.000" N
79°33'00.000" W
289.00 m
6117700
71314
XBI

Download Data

Hourly Data (January 2018)
Hourly Data Report for January 11, 2018
Temp Definition
°C
Dew Point Temp Definition
°C
Rel Hum Definition
%
Wind Dir Definition
10's deg

Wind Spd Definition
km/h
Visibility Definition
km
Stn Press Definition
kPa
Hmdx Definition


Wind Chill Definition


Weather Definition


TIME
00:00 4.5 3.4 93 19 11   98.00     LegendNANA
01:00 4.3 3.3 93 16 8   97.97     LegendNANA
02:00 4.4 3.5 94 18 7   97.95     LegendNANA
03:00 3.5 2.7 94 12 7   97.98     LegendNANA
04:00 4.7 3.9 95 18 5   97.98     LegendNANA
05:00 5.8 4.3 90 19 5   97.95     LegendNANA
06:00 6.0 4.2 89 20 11   97.93     LegendNANA
07:00 6.5 5.2 91 21 14   97.95     LegendNANA
08:00 6.6 5.5 93 21 14   97.95     LegendNANA
09:00 6.8 5.4 91 21 15   98.00     LegendNANA
10:00 7.3 5.4 88 21 16   98.00     LegendNANA
11:00 7.8 6.0 89 20 15   97.99     LegendNANA
12:00 8.2 5.7 84 19 19   97.92     LegendNANA
13:00 8.5 5.8 83 19 17   97.85     LegendNANA
14:00 8.4 5.7 83 19 16   97.79     LegendNANA
15:00 8.2 5.5 83 19 12   97.77     LegendNANA
16:00 8.7 5.9 82 19 15   97.70     LegendNANA
17:00 8.3 5.7 84 18 9   97.65     LegendNANA
18:00 8.2 6.2 87 17 8   97.59     LegendNANA
19:00 8.3 7.4 94 18 12   97.57     LegendNANA
20:00 8.4 7.6 95 18 15   97.46     LegendNANA
21:00 9.2 8.5 95 19 15   97.40     LegendNANA
22:00 9.2 8.4 95 19 15   97.32     LegendNANA
23:00 9.3 8.5 95 19 16   97.28     LegendNANA

Notes on Data Quality.

Legend

  • E = Estimated
  • M = Missing
  • NA = Not Available
  • ‡ = Partner data that is not subject to review by the National Climate Archives
Date modified: